Home > Weather > San Juan > Past weeks

Flag for Puerto Rico Past Weather in San Juan, Puerto Rico — Yesterday and Last 2 Weeks

Now
79 °F

Passing clouds.


Feels Like: 82 °F
Forecast: 78 / 84 °F
Wind: 6 mph from Southeast

Location: Luis Munoz Marin

Current Time: May 26, 2016 at 3:07:33 AM

Latest Report: May 26, 2016 at 1:56 AM


Visibility: 10 mi

Pressure: 29.99 "Hg

Humidity: 77%

Dew Point: 71 °F

Location of San JuanLocation

Past Weather in San Juan — Graph

°F

San Juan Temperature Yesterday

Maximum temperature yesterday: 87 °F (at 10:56 AM)
Minimum temperature yesterday: 79 °F (at 1:56 AM)
Average temperature yesterday: 82 °F

High & Low Weather Summary for the Past Weeks

 TemperatureHumidityPressure
High91 °F (May 22, 1:56 PM)100% (May 13, 6:56 PM)30.12 "Hg (May 13, 6:56 PM)
Low75 °F (May 11, 5:56 AM)50% (May 22, 1:56 PM)29.94 "Hg (May 22, 3:56 PM)
Average82 °F79%30.04 "Hg
* Reported May 11 1:56 AM — May 26 1:56 AM, San Juan, Weather by CustomWeather, © 2016

Note: Actual official high and low records may vary slightly from our data, if they occured in-between our weather recording intervals... More about our weather records

Advertising

San Juan Weather History for the Previous 24 Hours

Scroll right to see more
 ConditionsComfort  
Time TempWeatherWind HumidityBarometerVisibility
1:56 AM
Thu, May 26
79 °FPassing clouds.6 mph77%29.99 "Hg10 mi
12:56 AM80 °FPassing clouds.5 mph76%30.02 "Hg10 mi
11:56 PM
Wed, May 25
79 °FPassing clouds.8 mph82%30.04 "Hg10 mi
10:56 PM80 °FPassing clouds.7 mph79%30.06 "Hg10 mi
9:56 PM80 °FPassing clouds.7 mph79%30.06 "Hg10 mi
8:56 PM81 °FPassing clouds.6 mph74%30.04 "Hg10 mi
7:56 PM81 °FPassing clouds.12 mph77%30.02 "Hg10 mi
6:56 PM82 °FScattered clouds.14 mph74%30.01 "Hg10 mi
5:56 PM84 °FScattered clouds.18 mph70%29.99 "Hg10 mi
4:56 PM85 °FScattered clouds.17 mph70%29.99 "Hg10 mi
3:56 PM86 °FScattered clouds.20 mph67%30.00 "Hg10 mi
2:56 PM85 °FScattered clouds.18 mph70%30.01 "Hg10 mi
1:56 PM87 °FScattered clouds.18 mph67%30.01 "Hg10 mi
12:56 PM87 °FScattered clouds.18 mph67%30.02 "Hg10 mi
11:56 AM87 °FScattered clouds.17 mph65%30.04 "Hg10 mi
10:56 AM87 °FScattered clouds.14 mph61%30.07 "Hg10 mi
9:56 AM86 °FScattered clouds.15 mph59%30.08 "Hg10 mi
8:56 AM84 °FScattered clouds.14 mph74%30.08 "Hg10 mi
7:56 AM79 °FMore clouds than sun.5 mph90%30.10 "Hg10 mi
6:56 AM79 °FBroken clouds.No wind90%30.09 "Hg10 mi
5:56 AM79 °FPassing clouds.No wind88%30.09 "Hg10 mi
4:56 AM79 °FPassing clouds.5 mph88%30.06 "Hg10 mi
3:56 AM79 °FPassing clouds.3 mph88%30.06 "Hg10 mi
Weather by CustomWeather, © 2016

See weather overviewHow to use our weather pages